Location: Fenile
(46.0500°N, 9.5500°E)
Time: 17:25:52
(UTC+00:00)

Cosmos 1437 - Pass Details

Date: 03 March 2021
Orbit: 348 x 351 km, 81.2° (Epoch: 11 April)

Event Time Altitude Azimuth Distance (km) Brightness Sun altitude
Rises 17:51:30 0° 340° (NNW) 2,180 6.6 -7.8°
Reaches altitude 10° 17:53:34 10° 330° (NNW) 1,332 5.7 -8.2°
Maximum altitude 17:56:11 32° 265° (W) 633 4.6 -8.6°
Drops below altitude 10° 17:58:48 10° 199° (SSW) 1,325 5.5 -9.1°
Sets 18:00:51 0° 189° (S) 2,166 6.5 -9.4°
